                ,  0.730,  0.880,  1.030,  1.180,  1.330,  1.480,  1.630,  1.780,  1.930,  2.080,  2.230,  2.380,  2.530,  2.680,  2.830,  2.980,  3.130,  3.280,  3.430,  3.580,  3.730,  3.880,  4.030,  4.180,  4.330,  4.480,  4.630,  4.780,  4.930,  5.080,  5.230,  5.380
1999/07/25 00:00,  999.0,   35.2,   39.9,   42.6,  999.0,  999.0,  999.0,   39.7,   42.3,   34.8,  999.0,   32.3,   39.2,   36.4,   29.5,   35.0,   28.3,   33.6,   35.8,   29.2,   22.7,   25.8,   27.5,   23.9,   29.5,   26.2,   21.4,   25.9,   27.0,   23.5,   22.6,   20.5
1999/07/25 00:10,   35.1,   34.8,   36.6,   37.5,   40.6,   34.5,  999.0,   43.6,   42.4,   40.1,  999.0,   34.2,   44.7,   34.4,   33.4,   37.4,   35.8,   25.4,   30.0,   27.4,   29.8,   32.6,   21.7,   24.1,   29.2,   19.6,   27.8,   30.1,   27.0,   18.2,   18.0,   20.2
1999/07/25 00:20,   30.8,   31.4,   34.8,   37.4,   36.5,   32.8,   36.5,   44.6,   35.3,   37.0,   39.4,   35.4,   45.3,   32.9,   36.3,   38.1,   32.7,   27.3,   26.3,   27.5,   27.9,   29.2,   24.1,   25.1,   27.0,   29.2,   26.6,   27.8,   33.0,   22.3,   16.3,   22.5
1999/07/25 00:30,   28.5,   27.6,   31.1,   39.2,   36.5,   34.2,   31.5,   38.0,   36.1,   38.8,   37.3,   35.7,   36.5,   27.7,   33.2,   35.6,   29.3,   31.0,   27.5,   25.3,   23.2,   23.4,   23.9,   22.3,   24.9,   30.0,   25.7,   25.9,  999.0,   22.0,   21.1,   22.1
1999/07/25 00:40,   30.4,   29.0,   28.0,   37.9,   44.0,   35.5,   31.6,   35.0,   31.6,   32.4,   39.4,   32.0,   31.9,   26.5,   25.6,   31.6,   28.7,   28.8,   24.4,   19.2,   25.3,   25.6,   26.7,   22.7,   22.8,   31.8,   24.5,   24.7,   24.9,   21.4,   25.1,   19.2
1999/07/25 00:50,   34.7,   31.9,   36.1,   39.3,   38.7,   38.5,   28.5,   27.1,   26.9,   35.5,   31.7,   32.3,   27.2,   24.6,   24.6,   25.8,   29.6,   32.5,   24.9,   24.0,   23.7,   25.8,   26.5,   23.3,   22.6,   30.4,   25.5,   25.7,   20.9,   21.6,   20.5,   20.0
1999/07/25 01:00,   41.4,   40.8,   33.0,   40.5,   35.2,   32.3,   28.8,   25.3,   30.2,   25.1,   34.7,   32.9,   27.7,   28.0,   27.2,   30.9,   28.1,   29.0,   24.5,   24.8,   38.4,   29.2,   25.9,   21.5,   23.0,   25.1,   23.8,   24.9,   20.2,   17.4,   22.1,   19.4
1999/07/25 01:10,   34.3,   30.7,   40.2,   37.9,   41.5,   39.1,   28.2,   27.2,   29.0,   26.9,   27.7,   29.4,   25.8,   26.4,   25.2,   24.5,   26.6,   27.3,   29.2,   28.7,   31.0,   26.0,   22.7,   18.8,   27.4,   28.0,   25.3,   19.5,   19.5,   23.4,   18.0,   20.0
1999/07/25 01:20,   36.3,   38.8,   37.8,   40.9,   37.1,   37.8,   39.4,   37.1,   34.0,   31.4,   27.6,   29.7,   27.8,   28.2,   24.6,   23.5,   26.7,   30.3,   28.5,   29.8,   24.5,   19.5,   20.7,   23.3,   26.4,   25.9,   26.4,   16.2,   20.8,   25.8,   15.4,   18.1
1999/07/25 01:30,   36.0,   36.3,   36.7,   41.5,   38.9,   36.0,   41.2,   42.0,   39.1,   35.8,   34.8,   30.9,   30.0,   22.1,   24.7,   29.3,   29.3,   24.2,   24.9,   29.9,   25.9,   25.3,   22.1,   23.3,   31.6,   29.8,   25.9,   17.7,   21.4,   22.9,   18.0,  999.0
1999/07/25 01:40,   34.6,   36.2,   39.8,   41.7,   40.8,   34.0,   39.6,   37.2,   37.4,   36.5,   34.0,   27.1,   23.3,   37.0,   30.2,   29.5,   31.6,   29.3,   27.8,   29.8,   28.5,   30.9,   24.4,   22.6,   25.1,   21.1,   21.3,   20.1,   22.1,   21.7,   18.7,   19.9
1999/07/25 01:50,   34.4,   37.6,   42.0,   40.6,   40.9,   41.9,   34.0,   34.8,   30.1,   29.3,   37.3,   34.3,   25.2,   36.8,   34.7,   33.4,   31.3,   29.5,   28.9,   27.8,   30.0,   30.0,   28.4,   21.2,   20.4,   20.4,   20.8,   17.5,   19.1,   20.8,  999.0,   22.6
1999/07/25 02:00,   30.2,   35.7,   39.6,   40.6,   34.5,   42.3,   27.9,   29.6,   38.1,   29.4,   27.5,   34.2,   26.4,   33.3,   28.6,   31.0,   33.5,   28.4,   24.9,   28.0,   29.6,   32.7,   30.9,   28.2,   26.9,   21.4,   23.1,   21.6,   16.9,   19.8,   17.2,   23.3
1999/07/25 02:10,   33.2,   33.7,   38.2,   47.6,   37.6,   29.1,   25.5,   31.3,   36.6,   31.0,   33.8,   29.6,   29.0,   32.3,   22.3,   27.7,   25.3,   24.1,   30.4,   30.9,   28.6,   33.0,   30.3,   32.9,   29.5,   25.3,   22.6,   22.7,   25.3,   23.2,   17.7,  999.0
1999/07/25 02:20,   30.4,   30.2,   33.8,   43.0,   38.0,   30.4,   22.2,   25.1,   30.5,   30.6,   30.1,   30.9,   31.3,   25.2,   20.6,   25.6,   21.4,   26.4,   31.9,   37.3,   36.7,   33.3,   28.4,   34.0,   26.5,   27.3,   26.7,   25.7,   27.7,   31.3,   28.2,  999.0
1999/07/25 02:30,   26.3,   31.4,   36.2,   38.0,   34.6,   30.2,   27.3,   27.0,   23.5,   30.4,   28.0,   31.7,   34.6,   33.2,   26.9,   26.4,   25.5,   25.6,   32.0,   30.5,   35.9,   31.7,   34.6,   32.6,   27.2,   22.3,   21.5,   18.8,   29.0,   30.5,   28.6,   20.8
1999/07/25 02:40,   31.6,   35.5,   41.3,   31.6,   35.1,   32.7,   31.9,   31.5,   29.8,   28.5,   27.1,   27.2,   28.0,   32.4,   24.9,   27.2,   27.9,   25.5,   28.6,   27.2,   33.9,   30.9,   25.4,   25.4,   30.5,   22.1,   16.1,   24.5,   21.2,   22.7,   23.4,   27.9
1999/07/25 02:50,   31.6,   35.1,   42.2,   38.2,   37.3,   35.5,   30.7,   29.0,   35.6,   28.9,   28.7,   28.6,   35.7,   27.3,   26.4,   28.3,   32.5,   32.4,   28.2,   27.4,   33.6,   24.4,   26.1,   28.2,   23.1,   19.6,   19.4,   27.3,   22.2,   22.6,   20.4,  999.0
1999/07/25 03:00,   30.5,   33.4,   36.4,   38.2,   33.9,   36.8,   34.0,   33.0,   32.8,   36.7,   29.5,   30.7,   34.7,   27.2,   27.4,   24.1,   23.5,   33.1,   26.5,   28.8,   32.9,   24.0,   24.3,   21.3,   21.5,   18.8,   20.6,   21.6,   21.8,   23.3,   21.1,   20.4
1999/07/25 03:10,   28.9,   33.2,   33.5,   36.3,   33.2,   32.2,   33.7,   35.8,   34.0,   27.6,   23.8,   26.9,   29.4,   28.7,   24.8,   24.1,   25.1,   30.7,   24.7,   24.6,   26.4,   20.8,   17.5,   21.9,   20.2,   32.4,   26.1,   26.0,   18.2,   23.9,   20.7,   20.1
1999/07/25 03:20,   27.0,   32.1,   33.6,   33.1,   32.7,   36.4,   34.4,   35.8,   32.2,   30.0,   27.3,   29.7,   23.7,   28.3,   25.3,   24.1,   28.8,   28.0,   26.6,   27.0,   26.7,   21.5,   21.3,   18.4,   21.2,   31.7,   27.9,   22.5,   22.3,   23.7,   22.6,   26.3
1999/07/25 03:30,   30.1,   33.0,   34.4,   32.1,   32.1,   32.6,   32.5,   33.9,   33.0,   30.0,   27.5,   24.3,   22.3,   30.2,   25.6,   25.8,   31.8,   26.7,   23.0,   28.3,   28.4,   28.0,   17.7,   21.2,   21.5,   27.9,   28.0,   24.2,   28.1,   30.7,   25.9,   30.7
1999/07/25 03:40,   29.1,   33.4,   35.7,   32.3,   33.2,   35.2,   33.8,   31.4,   31.0,   34.4,   25.7,   19.8,   23.0,   28.5,   23.6,   21.4,   25.2,   26.0,   22.9,   28.5,   31.7,   31.0,   22.7,   24.6,   23.3,   23.2,   23.1,   25.4,   27.0,   29.4,   29.3,   21.0
1999/07/25 03:50,   29.4,   38.2,   33.8,   35.3,   32.1,   27.9,   25.6,   33.2,   31.5,   31.3,   34.1,   23.7,   27.7,   28.2,   21.7,   21.0,   18.7,   29.7,   28.5,   27.4,   26.5,   27.3,   28.4,   24.8,   19.9,   24.7,   23.7,   24.2,   24.4,   25.7,   24.1,   21.9
1999/07/25 04:00,   30.7,   33.8,   30.6,   34.5,   34.4,   31.9,   31.0,   32.6,   33.4,   33.3,   37.8,   31.9,   29.5,   27.1,   31.6,   30.7,   24.1,   25.2,   28.1,   28.6,   26.9,   27.0,   27.1,   27.8,   25.8,   27.9,   28.8,   26.5,   29.6,   27.4,   24.5,   26.8
1999/07/25 04:10,   34.6,   35.7,   31.1,   33.0,   37.6,   33.8,   34.3,   33.5,   36.4,   31.7,   32.8,   33.1,   31.8,   28.6,   33.9,   28.4,   25.2,   27.9,   26.8,   25.9,   31.3,   28.4,   24.4,   22.7,   24.8,   25.1,   26.7,   26.9,   27.2,   27.1,   31.1,   27.4
1999/07/25 04:20,   29.2,   34.9,   39.4,   39.3,   40.9,   35.1,   32.8,   38.0,   37.0,   31.5,   32.9,   32.9,   28.6,   31.9,   37.0,   25.2,   33.3,   28.6,   31.2,   26.6,   26.8,   30.4,   26.9,   27.2,   24.1,   24.7,   26.1,   24.8,   35.8,   34.6,   31.3,   29.8
1999/07/25 04:30,   33.2,   39.4,   37.7,   37.3,   39.0,   33.1,   33.4,   38.1,   34.8,   31.5,   31.0,   31.8,   31.9,   34.6,   36.8,   28.3,   26.9,   30.7,   21.0,   25.5,   31.8,   27.8,   25.3,   28.9,   24.6,   23.6,   30.7,   32.8,   36.5,   33.0,   31.1,   24.3
1999/07/25 04:40,   36.6,   37.6,   36.4,   37.2,   38.5,   38.4,   35.9,   35.4,   35.2,   30.5,   25.9,   32.1,   29.9,   32.5,   37.1,   36.6,   31.3,   31.8,   22.6,   28.6,   30.3,   24.3,   23.3,   25.8,   28.2,   29.7,   31.3,   34.4,   31.6,   31.2,   31.5,   22.5
1999/07/25 04:50,   33.9,   37.5,   36.2,   33.7,   37.9,   43.2,   36.8,   32.3,   35.3,   27.3,   36.2,   36.5,   29.7,   30.6,   30.7,   30.0,   27.5,   29.5,   29.2,   29.9,   25.8,   26.6,   32.9,   25.2,   27.4,   25.4,   25.2,   25.2,   26.8,   28.4,   26.4,   26.1
1999/07/25 05:00,   32.4,   31.4,   35.1,   32.6,   36.2,   34.6,   38.4,   36.8,   32.6,   34.6,   32.4,   29.2,   24.1,   28.7,   28.7,   26.2,   23.7,   28.4,   30.5,   29.3,   25.6,   28.1,   30.1,   27.2,   26.8,   23.5,   22.1,   24.8,   26.2,   28.3,   24.7,   23.9
1999/07/25 05:10,   37.1,   36.7,   34.5,   34.4,   40.4,   37.4,   34.8,   35.9,   38.1,   34.6,   34.2,   36.5,   37.1,   41.3,   36.3,   31.5,   29.6,   32.5,   27.6,   28.0,   26.2,   24.8,   26.4,   26.3,   27.7,   21.9,   26.8,   27.1,   27.4,   27.4,   20.7,   24.9
1999/07/25 05:20,   38.7,   35.0,   35.3,   37.9,   38.0,   38.1,   40.6,   38.6,   36.2,   29.0,   26.9,   27.6,   31.8,   40.1,   35.5,   30.9,   30.6,   29.4,   27.8,   27.7,   26.0,   24.1,   28.7,   26.5,   18.7,   28.2,   28.1,   21.2,   26.8,   30.6,   20.5,   24.5
1999/07/25 05:30,   34.1,   34.3,   39.1,   35.8,   36.3,   41.0,   40.2,   31.5,   28.2,   26.0,   35.6,   35.2,   32.8,   31.0,   31.9,   30.4,   31.6,   29.0,   24.7,   28.9,   30.6,   32.9,   26.8,   28.8,   27.0,   26.8,   27.7,   26.1,   26.7,   24.8,   26.6,   29.8
1999/07/25 05:40,   30.3,   35.9,   40.8,   36.7,   40.6,   35.9,   40.6,   38.9,   35.9,   28.1,   36.8,   43.2,   42.9,   43.9,   46.4,   48.2,   50.0,   49.8,   50.6,   51.1,   52.1,   53.9,   49.7,   45.9,   45.2,   43.4,   40.1,   36.4,   35.4,   33.3,   32.9,   36.9
1999/07/25 05:50,   35.8,   43.9,   44.1,   39.8,   41.4,   36.8,   32.1,   32.8,   39.8,   37.0,   36.7,   37.7,   33.8,   35.9,   31.4,   34.2,   33.5,   39.2,   31.3,   39.2,   35.2,   27.2,   27.9,   26.3,   28.5,   30.7,   26.8,   26.9,   25.9,   29.6,   30.3,   34.6
1999/07/25 06:00,   41.8,   39.9,   44.0,   38.8,   39.3,   34.8,   32.0,   29.9,   28.6,   31.0,   37.8,   36.6,   36.6,   35.5,   32.8,   34.1,   33.3,   38.5,   36.5,   34.9,   35.2,   29.3,   26.8,   23.9,   26.6,   24.3,   24.9,   23.3,   25.0,   30.1,   34.0,   37.1
1999/07/25 06:10,   34.6,   40.5,   44.0,   39.2,   38.1,   30.5,   32.2,   28.9,   26.4,   32.5,   32.8,   33.9,   32.3,   31.7,   30.9,   24.5,   25.1,   32.0,   37.4,   35.6,   30.3,   31.7,   27.0,   22.7,   26.7,   23.8,   23.3,   18.0,   21.4,   23.6,   25.7,   28.5
1999/07/25 06:20,   38.9,   48.3,   41.3,   34.3,   35.8,   34.9,   31.3,   35.0,   34.5,   32.8,   30.5,   25.5,   32.4,   31.3,   26.2,   24.7,   23.2,   22.0,   31.2,   32.5,   30.8,   27.5,   22.0,   25.0,   26.1,   30.2,   29.6,   26.0,   21.6,   24.0,   27.1,   29.7
1999/07/25 06:30,   43.9,   44.8,   39.2,   35.9,   36.6,   35.6,   34.0,   31.4,   33.5,   32.4,   29.5,   23.3,   24.8,   25.5,   35.7,   29.3,   23.6,   21.3,   24.1,   23.4,   24.2,   23.4,   27.2,   26.9,   26.3,   28.0,   26.5,   25.0,   25.2,   24.0,   25.1,   26.1
1999/07/25 06:40,   41.9,   49.0,   39.9,   38.1,   29.3,   34.1,   38.4,   41.3,   37.1,   33.4,   30.0,   27.4,   27.6,   25.2,   23.5,   24.0,   30.0,   27.1,   28.4,   28.6,   23.7,   16.1,  999.0,  999.0,   18.6,   17.6,   18.7,   20.8,   19.6,   26.8,   28.6,   20.3
1999/07/25 06:50,   50.0,   41.0,   36.3,   37.3,   31.1,   31.8,   33.0,   36.0,   35.8,   33.2,   34.4,   31.4,   32.4,   30.3,   24.3,   22.9,   27.4,   27.9,   25.8,   25.1,   19.9,   20.8,   22.0,   21.3,   18.2,   21.0,   17.9,   26.2,   28.1,   22.1,   23.1,   22.2
1999/07/25 07:00,   46.0,   43.6,   36.9,   31.8,   34.2,   31.3,   36.0,   34.5,   38.1,   36.5,   35.2,   35.9,   32.9,   32.3,   24.0,   20.3,   19.7,   26.0,   27.9,   26.6,   22.7,   18.5,   22.1,   22.8,   23.3,   21.2,   18.8,   23.6,   25.4,   20.6,   21.1,   22.5
1999/07/25 07:10,   43.1,   41.9,   42.5,   38.1,   40.2,   37.2,   36.4,   36.1,   38.1,   36.0,   34.2,   32.2,   34.5,   29.8,   29.4,   23.8,   23.7,   23.8,   24.8,   21.7,   26.0,   26.8,   23.7,   21.6,   21.4,   23.2,   23.1,   21.8,   21.2,   18.9,   20.1,   19.5
1999/07/25 07:20,   43.2,   33.5,   31.0,   29.0,   34.6,   33.8,   31.6,   34.1,   31.1,   36.1,   32.2,   30.2,   26.9,   25.1,   25.5,   26.1,   27.9,   25.2,   25.2,   24.4,   29.1,   27.8,   28.6,   25.8,   24.0,   25.7,   25.2,   20.9,   20.8,   21.6,   21.3,   18.9
1999/07/25 07:30,   39.2,   39.2,   34.7,   28.5,   29.8,   33.3,   29.6,   30.5,   32.5,   39.0,   40.1,   28.1,   26.6,   30.5,   29.2,   32.2,   32.3,   30.8,   24.0,   23.5,   23.7,   21.6,   23.9,   24.4,   25.6,   23.8,   21.7,   23.9,   22.8,   25.1,   24.3,   24.3
1999/07/25 07:40,   39.7,   39.5,   36.4,   31.2,   42.3,   43.7,   32.5,   34.8,   36.9,   40.7,   38.4,   30.8,   31.8,   30.9,   31.0,   29.2,   26.2,   27.8,   28.7,   27.0,   26.5,   21.6,   22.3,   23.0,   24.5,   23.1,   22.8,   28.7,   26.8,   26.6,   27.9,   26.7
1999/07/25 07:50,   39.2,   39.0,   42.4,   39.7,   41.8,   38.7,   33.7,   35.1,   34.8,   32.2,   35.9,   31.1,   27.7,   35.4,   27.2,   25.9,   24.4,   24.7,   22.1,   26.1,   22.6,   22.9,   24.4,   21.2,   23.6,   21.1,   27.1,   24.5,   25.2,   20.3,   21.4,   21.4
1999/07/25 08:00,   44.1,   42.1,   42.3,   40.4,   39.2,   37.5,   38.0,   34.0,   34.0,   28.4,   31.6,   34.6,   31.2,   30.2,   24.7,   25.1,   25.9,   22.0,   20.9,   24.9,   22.8,   21.2,   22.2,   22.3,   23.0,   23.1,   19.1,   21.9,   14.6,  999.0,   17.9,   18.7
1999/07/25 08:10,   42.7,   37.0,   37.7,   35.3,   35.4,   39.9,   36.5,   34.8,   30.9,   31.4,   34.4,   34.3,   30.0,   25.9,   27.3,   32.3,   33.1,   27.0,   26.4,   27.5,   20.3,   18.7,   19.2,   25.2,   27.1,   21.0,   20.5,   22.8,   17.5,   20.3,   18.1,   21.9
1999/07/25 08:20,   43.1,   34.8,   34.9,   37.3,   34.7,   41.9,   39.1,   35.2,   36.5,   37.1,   34.8,   36.0,   33.7,   27.7,   31.1,   27.4,   29.4,   27.3,   33.6,   24.8,   27.2,   17.0,   19.7,   26.6,   25.9,   25.1,   22.8,   19.7,   21.5,   21.1,   20.5,   20.9
1999/07/25 08:30,   45.0,   40.1,   33.9,   38.9,   35.3,   41.3,   36.5,   33.5,   36.6,   41.0,   36.8,   35.5,   33.6,   30.0,   24.2,   24.3,   26.3,   32.5,   28.4,   24.6,   27.1,   23.0,   23.9,   24.6,   19.6,   22.4,   23.9,   20.1,   19.5,   17.4,   20.2,   18.8
1999/07/25 08:40,   48.9,   48.6,   35.5,   41.5,   40.8,   40.4,   35.2,   41.7,   38.4,   31.8,   31.8,   29.2,   29.5,   32.8,   30.8,   23.9,   22.2,   21.2,   22.9,   24.8,   28.6,   29.8,   25.0,   20.7,   24.1,   25.7,   23.6,   25.9,   25.1,   23.6,   23.2,   22.3
1999/07/25 08:50,   47.8,   46.1,   35.3,   37.4,   41.5,   42.9,   42.0,   39.1,   35.9,   33.1,   29.2,   23.8,   23.6,   25.4,   30.8,   31.8,   30.3,   25.3,   32.2,   28.0,   31.3,   29.0,   23.0,   20.0,   20.7,   21.0,   26.9,   27.6,   24.6,   24.6,   24.7,   20.7
1999/07/25 09:00,   46.4,   46.0,   35.4,   36.5,   41.1,   43.1,   37.9,   39.4,   33.1,   33.7,   34.8,   30.2,   26.9,   24.9,   30.0,   39.8,   38.7,   35.0,   35.3,   28.4,   27.4,   30.7,   27.2,   21.4,  999.0,   19.4,   24.4,   27.7,   26.1,   25.9,   21.9,   21.2
1999/07/25 09:10,   48.1,   50.7,   37.3,   38.2,   46.7,   41.6,   43.9,   37.6,   35.0,   33.3,   33.7,   33.0,   34.0,   29.5,   29.9,   41.7,   33.0,   36.5,   32.9,   21.1,   24.8,   27.2,   23.2,   22.2,   15.8,   20.1,   24.8,   27.2,   26.8,   19.7,   22.0,   21.3
1999/07/25 09:20,   47.3,   49.1,  999.0,   42.5,   45.0,   44.7,   44.1,   35.9,   38.3,   41.1,   37.7,   30.7,   29.2,   27.2,   40.9,   40.7,   33.3,   29.8,   33.8,   24.5,   23.6,   29.9,   24.3,   20.4,   15.9,   22.0,   25.7,   21.9,   21.1,   19.9,   21.6,   18.8
1999/07/25 09:30,   47.3,   51.6,   53.9,   45.6,   44.1,   44.4,   43.0,   38.8,   43.3,   40.9,   32.7,   30.1,   27.6,   30.8,   41.3,   46.8,   37.8,   28.1,   35.3,   32.0,   19.6,   25.8,   21.1,   22.3,   24.4,   21.4,   21.9,   23.0,   26.2,   23.6,   22.9,   18.0
1999/07/25 09:40,   47.7,   48.0,   50.1,   59.6,   58.8,   44.1,   44.7,   41.6,   40.4,   34.7,   32.0,   26.5,   32.8,   29.3,   37.6,   44.8,   31.8,   23.1,   32.0,   26.4,   21.3,   26.5,   21.2,   22.0,   22.2,   19.9,   21.1,   22.0,   30.3,   26.1,   25.8,   26.5
1999/07/25 09:50,   46.8,   47.7,   49.0,   50.0,   54.8,   45.0,   47.5,   39.7,   32.3,   31.4,   35.0,   33.1,   39.0,   27.6,   39.5,   34.6,   32.2,   24.1,   34.0,   29.6,   25.7,   22.2,   25.8,   19.2,   20.6,   24.4,   25.0,   21.1,   30.6,   25.2,   22.1,   26.7
1999/07/25 10:00,   41.2,   43.7,   49.3,   52.4,   55.7,   57.4,   51.7,   38.7,   34.0,   32.5,   32.7,   31.5,   38.3,   28.9,   36.7,   37.6,   36.4,   22.7,   34.9,   31.9,   23.3,   31.3,   18.0,   18.2,   22.8,   27.8,   23.7,   19.3,   23.7,   25.4,   27.5,   25.8
1999/07/25 10:10,   47.1,   51.0,   51.0,   50.2,   47.8,   39.7,   46.4,   37.3,   40.3,   38.6,   35.9,   32.2,   36.1,   35.5,   36.5,   36.8,   37.1,   32.3,   23.7,   31.0,   27.0,   31.3,   19.6,   17.0,   17.2,   22.5,   24.2,   20.0,   22.9,   25.0,   28.4,   33.9
1999/07/25 10:20,   48.9,   52.9,   55.5,   52.0,   43.0,   49.5,   45.9,   35.5,   42.7,   36.0,   42.0,   37.7,   33.6,   33.6,   37.5,   38.0,   27.5,   26.3,   22.0,   37.2,   28.8,   29.0,   19.4,   18.2,   21.1,   20.3,   21.8,   24.2,   23.9,   22.1,   27.5,   21.2
1999/07/25 10:30,   48.1,   51.7,   57.8,   57.8,   50.4,   49.0,   39.9,   34.1,   41.6,   37.9,   39.7,   38.9,   34.0,   39.6,   33.9,   46.7,   28.2,   22.6,   39.5,   34.8,   28.5,   26.5,   20.5,   17.6,   17.9,   20.2,   23.0,   25.3,   22.8,   24.9,   23.7,   21.4
1999/07/25 10:40,   51.2,   50.8,   56.2,   60.7,   57.7,   49.4,   42.4,   40.3,   39.3,   39.4,   34.4,   33.4,   39.6,   35.3,   30.9,   32.4,   32.0,   24.2,   36.5,   25.4,   23.2,   19.9,   19.6,   18.0,   22.4,   19.9,   22.2,   22.9,   25.8,   16.3,  999.0,   16.9
1999/07/25 10:50,   50.3,   52.2,   55.2,   55.3,   53.6,   48.3,   47.7,   37.2,   36.9,   36.7,   31.9,   35.7,   37.7,   31.0,   30.0,   33.4,   34.7,   20.6,   32.7,   28.2,   21.4,   24.1,   19.9,   19.7,   21.5,   26.5,   25.1,   27.4,   26.9,   24.7,   19.8,   16.9
1999/07/25 11:00,   47.6,   48.4,   53.0,   59.3,   55.6,   50.2,   45.4,   39.3,   38.2,   35.1,   38.0,   43.7,   38.2,   31.3,   32.0,   30.8,   31.0,   21.2,   33.8,   32.7,   23.4,   24.7,   24.1,   18.9,   20.7,   28.1,   26.6,   30.8,   27.5,   20.3,   16.2,   17.1
1999/07/25 11:10,   50.4,   50.8,   54.9,   58.2,   60.8,   54.3,   49.1,   40.5,   43.3,   36.3,   38.0,   46.0,   44.8,   34.0,   29.1,   27.4,   20.2,   18.8,   38.4,   34.6,   22.4,   21.0,   27.0,   22.3,   19.8,  999.0,   27.2,   32.4,   27.0,   18.0,   16.7,  999.0
1999/07/25 11:20,   45.8,   51.2,   54.6,   58.9,   60.9,   51.4,   42.6,   36.2,   41.4,   34.9,   37.1,   36.5,   45.3,   37.9,   29.4,   25.0,   20.7,   23.6,   35.2,   32.3,   20.1,   20.6,   22.8,  999.0,   16.0,   21.1,   20.0,   24.0,   23.9,   19.0,   16.5,   20.2
1999/07/25 11:30,   47.7,   52.2,   55.0,   58.3,   59.1,   42.3,   37.2,   37.3,   36.9,   33.0,   31.3,   26.2,   45.0,   33.0,   27.3,   22.0,   23.5,   23.2,   27.8,   30.0,   20.8,   18.7,   23.1,   22.7,   20.4,   20.6,   17.8,   23.4,   22.3,   20.2,   16.6,   17.2
1999/07/25 11:40,   44.4,   50.8,   56.7,   58.6,   61.6,   46.6,   36.2,   37.0,   38.0,   35.3,   32.5,   35.0,   46.4,   31.0,   26.1,   20.2,   24.2,   23.2,   24.3,   35.9,   23.3,   19.4,   24.5,   24.4,   29.5,   23.3,   20.2,   25.6,   25.1,   22.4,   17.1,   16.7
1999/07/25 11:50,   43.9,   50.5,   54.4,   56.1,   61.8,   59.9,   42.1,   38.1,   38.4,   37.7,   29.6,   30.2,   44.9,   32.8,   24.0,   19.5,   21.5,   25.6,   33.1,   40.6,   29.4,   25.1,   24.3,   27.2,   22.2,   24.4,   18.6,   22.6,   25.9,   23.3,  999.0,   16.6
1999/07/25 12:00,   45.4,   53.1,   56.6,   58.0,   60.3,   63.1,   53.2,   43.2,   41.6,   39.7,   32.5,   35.3,   31.1,   22.3,   20.1,   20.8,   21.8,   28.9,   33.2,   32.3,   30.6,   31.1,   22.5,   23.4,   20.0,   20.2,   17.2,   23.9,   23.8,   19.4,   19.5,   16.7
1999/07/25 12:10,   44.6,   50.7,   56.5,   58.7,   59.6,   60.1,   62.2,   45.3,   34.0,   39.6,   37.1,   35.1,   27.1,   19.6,   19.1,   25.1,   19.4,   30.2,   37.0,   34.5,   30.0,   30.2,   30.4,   21.3,   18.6,   15.5,   16.5,   23.4,   24.1,  999.0,   20.9,   18.0
1999/07/25 12:20,   47.9,   51.2,   54.1,   57.6,   59.2,   59.9,   56.5,   46.9,   40.1,   38.6,   38.6,   37.3,   30.9,   23.1,   20.5,   23.5,   18.8,   27.8,   29.8,   30.0,   19.9,   23.6,   22.5,   18.0,   18.7,   19.6,   17.8,   20.3,   26.3,   21.7,   20.5,   19.2
1999/07/25 12:30,   46.0,   51.6,   56.1,   57.3,   58.0,   59.0,   55.2,   47.6,   39.1,   37.1,   36.8,   34.5,   36.7,   24.2,   20.9,   25.4,   25.2,   22.2,   34.0,   29.2,   24.1,   22.5,   21.8,   20.0,   27.4,   24.6,  999.0,   25.1,   22.9,   21.8,   19.8,   17.3
1999/07/25 12:40,   46.1,   50.1,   51.8,   54.0,   56.9,   59.5,   57.6,   48.5,   44.5,   37.7,   35.1,   36.9,   34.2,   23.1,   25.7,   25.1,   22.8,   28.4,   32.0,   28.4,   24.4,   35.6,   24.4,   18.1,   26.6,   23.7,  999.0,   18.2,   21.5,   19.9,   18.7,   17.9
1999/07/25 12:50,   47.3,   47.4,   49.0,   52.1,   57.3,   56.7,   57.0,   55.4,   54.7,   55.2,   51.6,   38.6,   36.0,   32.8,   26.0,   31.4,   25.6,   27.2,   31.5,   23.7,   24.8,   34.1,   21.8,   18.7,   19.4,   18.2,  999.0,   25.1,   24.5,   19.6,   19.0,   17.0
1999/07/25 13:00,   47.0,   46.7,   48.5,   51.0,   53.3,   55.4,   56.2,   55.5,   57.8,   61.1,   60.7,   40.6,   31.9,   25.1,   23.6,   27.4,   18.2,   19.0,  999.0,   21.8,   29.8,   32.4,   20.8,   16.8,   19.9,   18.5,   16.3,   24.7,   24.3,   18.1,   17.1,   18.3
1999/07/25 13:10,   53.9,   53.7,   50.1,   53.4,   55.5,   56.4,   58.6,   60.8,   59.5,   56.1,   39.0,   35.5,   31.6,   26.6,   26.5,   29.0,   29.5,   21.0,   22.6,   23.3,   30.2,   33.6,   20.0,   20.0,   22.8,   19.8,   17.6,   22.2,   20.8,   18.4,   17.1,  999.0
1999/07/25 13:20,   55.6,   54.9,   54.6,   54.4,   55.2,   58.0,   58.2,   60.6,   59.7,   59.8,   49.9,   42.4,   37.3,   29.9,   31.5,   28.6,   30.0,   30.2,   20.5,   22.5,   24.7,   32.5,   23.6,   19.7,   23.5,   20.9,   16.9,   19.7,   23.8,   20.1,  999.0,   14.1
1999/07/25 13:30,   49.4,   50.7,   52.3,   52.9,   53.6,   56.8,   56.5,   56.2,   56.9,   53.3,   53.9,   35.7,   38.6,   27.8,   24.2,   29.3,   27.0,   32.7,   23.7,   19.9,   24.5,   33.2,   27.4,   28.8,   24.5,   23.1,   21.8,   18.8,   20.4,   18.4,   15.3,   17.4
1999/07/25 13:40,   52.0,   50.2,   46.8,   49.2,   50.5,   53.2,   54.2,   52.9,   53.1,   53.4,   52.8,   52.1,   51.0,   50.8,   33.8,   31.6,   26.7,   28.9,   27.0,   25.9,   21.5,   33.4,   25.3,   27.3,   19.0,   20.1,   24.3,   17.5,   19.9,   18.6,   16.7,   18.0
1999/07/25 13:50,   52.9,   50.1,   49.5,   49.0,   49.8,   52.3,   53.0,   55.0,   55.1,   54.8,   54.3,   50.3,   45.7,   39.6,   33.0,   37.6,   25.0,   28.1,   26.5,   19.4,   33.0,   27.8,   25.8,   23.8,   17.7,   20.0,   14.6,   14.7,   18.1,   17.2,   16.3,   17.9
1999/07/25 14:00,   48.0,   46.1,   45.2,   45.3,   50.3,   54.9,   55.1,   52.8,   54.0,   52.9,   53.0,   49.7,   43.6,   30.4,   26.5,   28.1,   29.6,   25.8,   27.1,   20.7,   30.1,   30.9,   22.1,   22.5,   28.0,   18.1,   15.9,   16.2,   21.0,   19.3,   18.9,   19.7
1999/07/25 14:10,   48.4,   52.7,   48.9,   46.5,   51.7,   52.7,   53.5,   54.6,   55.3,   56.0,   54.3,   50.6,   56.8,   52.3,   46.9,   36.5,   27.6,   24.9,   23.7,   24.2,   28.8,   26.2,   23.4,   23.8,   27.6,   17.8,   17.6,   17.5,   21.7,   16.7,   18.5,   18.9